Location: Brookview Estates
(36.0476°N, 86.6931°W)
Time: 12:50:39
(UTC+00:00)

Hubble Space Telescope - Visible Passes

Search period start: 15 July 2020 00:00
Search period end: 25 July 2020 00:00
Orbit: 536 x 540 km, 28.5° (Epoch: 14 July)

Date Brightness Start Highest point End Pass type
(mag) Time Alt. Az. Time Alt. Az. Time Alt. Az.
15 Jul 1.9 01:30:25 10° WSW 01:33:58 28° S 01:37:32 10° ESE visible
15 Jul 2.8 03:11:41 10° WSW 03:13:12 16° SW 03:13:12 16° SW visible
16 Jul 2.8 03:01:11 10° WSW 03:02:55 16° SSW 03:02:55 16° SSW visible
17 Jul 2.9 02:50:48 10° SW 02:52:39 14° SSW 02:52:39 14° SSW visible
18 Jul 3.0 02:40:40 10° SW 02:42:15 12° SSW 02:42:22 12° SSW visible
